DateTimeUTC,F1_A11,F1_S11,BsB_S11,BsG_S11,BsR_S11,BbsB_S11,BbsG_S11,BbsR_S11,BaB_A11,BaG_A11,BaR_A11,Tu_S11,T_S11,Uu_S11,U_S11,P_S11,T1_A11
2021-02-04T12:00:00Z,00000200,21000000,,,,,,,-000.05,-000.26,-000.03,16.7,23.6,01.2,00.8,0618.3,30.9
2021-02-04T12:01:00Z,00000200,21000000,,,,,,,0000.08,0000.52,0000.09,16.7,23.6,01.2,00.8,0618.3,30.9
2021-02-04T12:02:00Z,00000200,21000000,,,,,,,0000.37,0000.13,0000.19,16.7,23.6,01.2,00.8,0618.5,30.9
2021-02-04T12:03:00Z,00000200,61000000,,,,,,,0000.03,0000.19,-000.17,16.7,23.6,01.2,00.8,0618.6,30.9
2021-02-04T12:04:00Z,00000200,41000000,-000.20,0000.01,-000.18,0000.16,-000.11,-000.30,-000.03,-000.13,0000.59,17.0,23.6,01.4,00.9,0619.8,31.0
2021-02-04T12:05:00Z,00000200,01000000,0000.72,0000.20,0000.03,0000.09,-000.00,-000.03,0000.23,0000.27,-000.27,17.1,23.6,01.4,00.9,0620.0,31.0
2021-02-04T12:06:00Z,00000200,01000000,-000.01,0000.32,0000.07,-000.53,-000.26,-000.04,0000.20,0000.17,-000.03,17.2,23.6,01.4,00.9,0619.9,31.0
2021-02-04T12:07:00Z,00000200,01000000,-000.53,0000.13,0000.24,-000.36,-000.35,0000.10,0000.01,-000.00,0000.27,17.2,23.5,01.5,01.0,0620.2,31.0
2021-02-04T12:08:00Z,00000200,01000000,0000.01,0000.11,0000.04,-000.22,-000.19,0000.00,0000.10,-000.23,-000.03,17.1,23.5,01.4,00.9,0620.0,31.0
2021-02-04T12:09:00Z,00000200,01000000,-000.85,0000.41,0000.02,-000.09,-000.32,0000.03,-000.23,0000.24,-000.11,17.1,23.5,01.4,00.9,0620.1,31.0
2021-02-04T12:10:00Z,00000200,01000000,0000.43,0000.12,0000.18,0000.33,-000.33,0000.02,0000.13,-000.31,0000.16,17.1,23.5,01.5,01.0,0620.5,31.0
2021-02-04T12:11:00Z,00000200,01000000,-000.36,0000.04,-000.24,0000.15,0000.02,-000.11,0000.28,0000.67,-000.04,17.1,23.5,01.4,01.0,0620.1,31.0
2021-02-04T12:12:00Z,00000200,01000000,0000.03,0000.22,0000.15,0000.06,-000.09,0000.04,0000.05,-000.23,0000.11,17.1,23.5,01.4,01.0,0620.7,31.0
2021-02-04T12:13:00Z,00000200,01000000,-000.26,0000.30,0000.01,-000.28,0000.03,0000.17,-000.27,0000.11,-000.10,17.1,23.5,01.3,00.9,0620.8,31.0
2021-02-04T12:14:00Z,00000200,01000000,0000.11,-000.04,0000.44,-000.69,-000.08,0000.16,0000.39,0000.11,0000.28,17.1,23.5,01.4,01.0,0620.6,31.0
2021-02-04T12:15:00Z,00000200,01000000,0000.57,-000.07,0000.01,-000.42,0000.07,0000.03,-000.08,-000.16,0000.16,17.0,23.5,01.3,00.9,0620.9,31.0
2021-02-04T12:16:00Z,00000200,01000000,0000.57,-000.01,0000.17,-000.11,-000.08,0000.30,0000.06,0000.26,-000.15,17.0,23.5,01.5,01.0,0620.8,31.0
2021-02-04T12:17:00Z,00000200,01000000,0000.58,0000.46,-000.00,0000.07,-000.08,-000.01,0000.15,0000.18,0000.23,17.0,23.5,01.5,01.0,0620.6,31.0
2021-02-04T12:18:00Z,00000200,01000000,-000.58,0000.02,0000.11,0000.08,-000.27,-000.13,0000.01,0000.06,0000.31,17.0,23.4,01.4,01.0,0621.0,31.0
2021-02-04T12:19:00Z,00000200,01000000,0000.59,0000.31,0000.14,-000.23,-000.28,0000.07,0000.09,-000.06,-000.08,17.0,23.4,01.4,00.9,0621.0,30.9
2021-02-04T12:20:00Z,00000200,01000000,0000.29,0000.32,0000.22,-000.35,-000.08,-000.14,-000.13,0000.38,0000.22,17.0,23.4,01.4,00.9,0621.1,30.9
2021-02-04T12:21:00Z,00000200,01000000,0000.40,0000.38,0000.20,-000.02,0000.10,-000.22,0000.32,-000.11,-000.40,17.0,23.4,01.5,01.0,0620.8,30.9
2021-02-04T12:22:00Z,00000200,01000000,0000.53,0000.40,0000.52,-000.00,0000.11,0000.06,0000.11,-000.15,0000.34,17.0,23.4,01.4,01.0,0620.8,30.9
2021-02-04T12:23:00Z,00000200,01000000,-000.04,0000.13,0000.05,0000.02,-000.26,-000.10,0000.30,0000.07,-000.11,17.0,23.4,01.5,01.0,0620.8,30.9
2021-02-04T12:24:00Z,00000200,01000000,0000.70,0000.19,-000.03,-000.07,-000.23,0000.06,-000.43,0000.26,-000.21,17.0,23.4,01.5,01.0,0621.0,30.9
2021-02-04T12:25:00Z,00000200,01000000,-000.02,0000.37,0000.20,0000.01,0000.07,-000.02,-000.06,0000.07,0000.20,16.9,23.4,01.5,01.0,0620.9,30.9
2021-02-04T12:26:00Z,00000200,01000000,0000.47,0000.12,-000.29,-000.38,-000.02,-000.15,0000.36,0000.11,0000.15,16.9,23.4,01.5,01.0,0621.6,30.9
2021-02-04T12:27:00Z,00000200,01000000,0001.58,0000.20,-000.20,-000.06,-000.29,0000.03,0000.19,-000.47,-000.23,16.9,23.4,01.4,00.9,0621.8,30.9
2021-02-04T12:28:00Z,00000200,01000000,-000.13,0000.29,0000.10,-000.01,-000.07,-000.09,-000.18,0000.09,0000.18,16.9,23.4,01.4,01.0,0621.7,30.9
2021-02-04T12:29:00Z,00000200,01000000,0000.31,0000.20,0000.11,-000.03,-000.14,-000.09,-000.31,0000.03,-000.23,16.9,23.4,01.4,00.9,0621.4,30.9
2021-02-04T12:30:00Z,00000200,01000000,0000.68,0000.10,0000.06,0000.31,-000.12,-000.05,0000.15,-000.14,0000.23,16.9,23.4,01.5,01.0,0621.2,30.9
2021-02-04T12:31:00Z,00000200,01000000,0000.34,0000.21,0000.03,-000.17,0000.10,-000.30,0000.57,-000.19,0000.00,16.9,23.3,01.5,01.0,0621.1,30.9
2021-02-04T12:32:00Z,00000200,01000000,0000.48,0000.33,-000.02,0000.12,-000.25,0000.21,-000.46,0000.58,0000.03,17.0,23.3,01.5,01.0,0620.7,30.9
2021-02-04T12:33:00Z,00000200,01000000,-000.09,0000.20,0000.28,-000.23,-000.22,0000.07,0000.46,-000.33,0000.35,17.1,23.4,01.5,01.0,0621.4,30.9
2021-02-04T12:34:00Z,00000200,01000000,-000.45,0000.14,-000.21,-000.25,-000.17,-000.13,-000.30,0000.23,-000.24,17.1,23.4,01.5,01.0,0621.4,30.9
2021-02-04T12:35:00Z,00000200,01000000,0000.12,0000.38,0000.07,-000.42,-000.20,0000.05,0000.12,0000.31,0000.20,17.2,23.5,01.4,01.0,0621.4,30.9
2021-02-04T12:36:00Z,00000200,01000000,0000.40,0000.25,0000.01,-000.13,0000.07,0000.16,0000.14,0000.33,0000.08,17.2,23.5,01.5,01.0,0621.1,31.0
2021-02-04T12:37:00Z,00000200,01000000,0000.55,0000.05,-000.10,0000.14,-000.14,0000.00,0000.39,-000.03,0000.34,17.2,23.5,01.5,01.0,0621.5,31.0
2021-02-04T12:38:00Z,00000200,01000000,0000.18,0000.25,-000.08,0000.25,-000.02,-000.08,-000.29,-000.23,-000.32,17.2,23.5,01.4,01.0,0621.3,31.0
2021-02-04T12:39:00Z,00000200,01000000,-000.06,0000.21,0000.04,0000.22,-000.23,-000.31,0000.14,-000.04,-000.01,17.2,23.5,01.4,01.0,0621.6,31.0
2021-02-04T12:40:00Z,00000200,01000000,0000.63,0000.25,-000.03,-000.16,-000.30,-000.18,-000.34,0000.24,-000.04,17.2,23.5,01.5,01.0,0621.7,31.0
2021-02-04T12:41:00Z,00000200,01000000,0000.53,0000.41,0000.17,0000.50,-000.22,0000.13,0000.21,-000.14,-000.02,17.1,23.5,01.4,00.9,0622.1,31.0
2021-02-04T12:42:00Z,00000200,01000000,0000.44,0000.38,0000.43,-000.05,-000.13,-000.05,-000.36,0000.08,-000.16,17.1,23.5,01.5,01.0,0621.8,31.0
2021-02-04T12:43:00Z,00000200,01000000,0000.08,0000.23,-000.18,-000.11,0000.02,-000.06,-000.01,-000.33,-000.21,17.1,23.5,01.4,01.0,0621.7,31.0
2021-02-04T12:44:00Z,00000200,01000000,0000.33,0000.29,-000.10,0000.12,-000.08,-000.16,-000.40,-000.53,-000.03,17.1,23.5,01.4,01.0,0621.9,31.0
2021-02-04T12:45:00Z,00000200,01000000,-000.08,0000.03,-000.03,0000.08,-000.21,-000.13,0000.06,-000.14,0000.27,17.1,23.4,01.5,01.0,0621.8,30.9
2021-02-04T12:46:00Z,00000200,01000000,0000.40,0000.24,-000.04,-000.33,-000.27,-000.07,0000.43,0000.62,0000.09,17.1,23.4,01.4,01.0,0621.8,30.9
2021-02-04T12:47:00Z,00000200,01000000,-000.37,0000.05,-000.02,-000.05,-000.03,-000.23,0000.24,0000.17,-000.00,17.1,23.4,01.5,01.0,0621.8,31.0
2021-02-04T12:48:00Z,00000200,01000000,0000.29,0000.25,0000.04,-000.79,-000.17,0000.05,0000.06,0000.25,0000.13,17.2,23.5,01.5,01.0,0622.0,31.0
2021-02-04T12:49:00Z,00000200,01000000,-000.35,0000.05,0000.10,-000.18,-000.21,0000.26,0000.00,-000.18,0000.00,17.2,23.5,01.5,01.0,0622.2,31.0
2021-02-04T12:50:00Z,00000200,01000000,-000.07,0000.09,0000.18,0000.63,-000.01,0000.19,0000.15,0000.63,-000.07,17.2,23.5,01.4,00.9,0621.8,31.0
2021-02-04T12:51:00Z,00000200,01000000,-000.46,-000.16,0000.24,-000.41,-000.14,-000.03,-000.18,-000.15,0000.11,17.2,23.5,01.4,01.0,0622.0,31.0
2021-02-04T12:52:00Z,00000200,01000000,0000.20,0000.22,-000.20,-000.05,-000.10,0000.02,0000.15,-000.02,0000.05,17.2,23.5,01.4,00.9,0621.1,31.0
2021-02-04T12:53:00Z,00000200,01000000,0000.42,0000.21,0000.13,-000.30,-000.33,0000.10,-000.38,-000.12,0000.21,17.2,23.5,01.4,00.9,0621.4,31.0
2021-02-04T12:54:00Z,00000200,01000000,-000.48,-000.18,0000.06,-000.32,-000.13,-000.05,0000.09,0000.22,-000.00,17.2,23.5,01.5,01.0,0621.5,31.0
2021-02-04T12:55:00Z,00000200,01000000,0000.39,0000.20,-000.06,-000.16,-000.23,-000.03,0000.27,0000.10,-000.05,17.2,23.5,01.5,01.0,0621.7,30.9
2021-02-04T12:56:00Z,00000200,01000000,0000.07,0000.16,-000.30,0000.05,-000.30,-000.10,0000.11,-000.15,0000.05,17.2,23.5,01.4,01.0,0621.5,30.9
2021-02-04T12:57:00Z,00000200,41000000,,,,,,,0000.09,0000.35,0000.26,17.2,23.5,01.2,00.8,0621.2,30.9
2021-02-04T12:58:00Z,00000200,61000000,,,,,,,-000.10,-000.37,-000.24,16.8,23.6,01.3,00.8,0620.9,31.0
2021-02-04T12:59:00Z,00000200,21000000,,,,,,,0000.08,-000.45,0000.16,16.8,23.7,01.2,00.8,0620.8,31.0
